Flint, MI

7:40 PM EST on February 16, 2019 (GMT -0500)
Bishop International

Weather History for KFNT - February, 2019

Change the Weather History Date:

Monday, February 11, 2019

  Actual Average Record
Temperature  
Mean Temperature 25 °F 24 °F  
Max Temperature 28 °F 32 °F 68 °F (1999)
Min Temperature 22 °F 16 °F -11 °F (2014)
Degree Days  
Heating Degree Days 40 41  
Month to date heating degree days 405 459  
Since 1 July heating degree days 4384 4423  
Cooling Degree Days 0 0  
Month to date cooling degree days 0 0  
Year to date cooling degree days 0 0  
Moisture  
Dew Point 21 °F    
Average Humidity 82    
Maximum Humidity 88    
Minimum Humidity 75    
Precipitation  
Precipitation T in 0.05 in 0.96 in (2009)
Month to date precipitation 0.97 0.53  
Year to date precipitation 2.90 2.16  
Snow  
Snow T in 0.40 in 5.20 in (1985)
Month to date snowfall 2.3 4.4  
Since 1 July snowfall 34.0 32.2  
Snow Depth 1.00 in    
Sea Level Pressure  
Sea Level Pressure 30.26 in    
Wind  
Wind Speed 12 mph (ENE)    
Max Wind Speed 20 mph    
Max Gust Speed 24 mph    
Visibility 10 miles    
Events      
T = Trace of Precipitation, MM = Missing Value Source: NWS Daily Summary

Daily Weather History Graph

Daily Weather History Graph

Search for Another Location

Airport or City:

Astronomy

Feb. 11, 2019 Rise Set
Actual Time 7:38 AM EST 6:00 PM EST
Civil Twilight 7:08 AM EST 6:30 PM EST
Nautical Twilight 6:35 AM EST 7:03 PM EST
Astronomical Twilight 6:02 AM EST 7:36 PM EST
Moon 11:02 AM EST (2/11) No Moon Set
Length of Visible Light 11h 21m
Length of Day
10h 22m
Waxing Crescent, 38% of the Moon is Illuminated
Feb 11
Waxing Crescent
Feb 12
First Quarter
Feb 19
Full
Feb 26
Last Quarter
Mar 6
New

Hourly Weather History & Observations

Time (EST) Temp. Windchill Dew Point Humidity Pressure Visibility Wind Dir Wind Speed Gust Speed Precip Events Conditions
12:53 AM 21.9 °F 14.5 °F 17.1 °F 82% 30.28 in 10.0 mi East 5.8 mph - N/A   Overcast
1:53 AM 23.0 °F 13.1 °F 18.0 °F 81% 30.26 in 10.0 mi East 9.2 mph - N/A   Overcast
2:15 AM 23.0 °F 13.1 °F 18.0 °F 81% 30.22 in 10.0 mi East 9.2 mph - N/A   Overcast
2:53 AM 23.0 °F 14.7 °F 18.0 °F 81% 30.26 in 10.0 mi NE 6.9 mph - N/A   Overcast
3:53 AM 23.0 °F 13.9 °F 19.0 °F 85% 30.26 in 10.0 mi ENE 8.1 mph - N/A   Overcast
4:13 AM 23.0 °F 13.1 °F 19.0 °F 85% 30.22 in 10.0 mi ENE 9.2 mph - N/A   Overcast
4:53 AM 23.0 °F 13.1 °F 19.0 °F 85% 30.27 in 10.0 mi ENE 9.2 mph - N/A   Overcast
5:53 AM 23.0 °F 13.9 °F 19.0 °F 85% 30.27 in 10.0 mi ENE 8.1 mph - N/A   Overcast
6:53 AM 23.0 °F 13.1 °F 19.0 °F 85% 30.27 in 10.0 mi East 9.2 mph - N/A   Overcast
7:53 AM 23.0 °F 12.4 °F 18.0 °F 81% 30.28 in 10.0 mi ENE 10.4 mph - N/A   Overcast
8:53 AM 24.1 °F 14.4 °F 19.0 °F 81% 30.30 in 10.0 mi ENE 9.2 mph - N/A   Overcast
9:53 AM 25.0 °F 13.6 °F 19.9 °F 81% 30.30 in 8.0 mi ENE 12.7 mph - N/A   Overcast
10:53 AM 26.1 °F 15.6 °F 21.0 °F 81% 30.29 in 9.0 mi East 11.5 mph - N/A   Overcast
11:15 AM 27.0 °F 16.7 °F 21.0 °F 78% 30.26 in 10.0 mi East 11.5 mph - N/A   Overcast
11:53 AM 27.0 °F 16.7 °F 21.0 °F 78% 30.30 in 10.0 mi East 11.5 mph - N/A   Overcast
12:53 PM 28.0 °F 19.3 °F 21.9 °F 78% 30.29 in 10.0 mi East 9.2 mph - N/A   Overcast
1:30 PM 28.0 °F 17.5 °F 23.0 °F 81% 30.23 in 9.0 mi East 12.7 mph - N/A   Overcast
1:53 PM 28.0 °F 17.0 °F 23.0 °F 81% 30.25 in 8.0 mi ENE 13.8 mph - N/A   Overcast
2:53 PM 28.0 °F 17.0 °F 23.0 °F 81% 30.25 in 8.0 mi East 13.8 mph - N/A   Overcast
3:53 PM 28.0 °F 18.1 °F 23.0 °F 81% 30.25 in 8.0 mi East 11.5 mph - N/A   Overcast
4:37 PM 28.0 °F 18.1 °F 23.0 °F 81% 30.23 in 9.0 mi ENE 11.5 mph - N/A   Overcast
4:49 PM 28.4 °F 17.0 °F 23.0 °F 80% 30.23 in 8.0 mi ENE 15.0 mph - N/A   Overcast
4:53 PM 28.0 °F 16.5 °F 23.0 °F 81% 30.26 in 8.0 mi ENE 15.0 mph - N/A   Overcast
5:53 PM 27.0 °F 16.1 °F 23.0 °F 85% 30.27 in 9.0 mi NE 12.7 mph - N/A   Overcast
6:53 PM 27.0 °F 16.1 °F 23.0 °F 85% 30.28 in 10.0 mi East 12.7 mph - N/A   Overcast
7:53 PM 27.0 °F 15.2 °F 23.0 °F 85% 30.25 in 10.0 mi East 15.0 mph - N/A   Overcast
8:53 PM 27.0 °F 15.6 °F 21.9 °F 81% 30.25 in 10.0 mi East 13.8 mph - N/A   Overcast
9:53 PM 26.1 °F 13.1 °F 21.9 °F 84% 30.22 in 10.0 mi East 17.3 mph - N/A   Overcast
10:53 PM 26.1 °F 13.6 °F 21.0 °F 81% 30.21 in 10.0 mi East 16.1 mph - N/A   Overcast
11:53 PM 25.0 °F 13.1 °F 21.0 °F 85% 30.17 in 10.0 mi East 13.8 mph - N/A   Overcast